Location: StarHub Observatory
(35.2598°N, 77.5855°W)
Time: 03:12:24
(UTC-05:00)

Hubble Space Telescope - Pass Details

Date: 03 December 2021
Orbit: 534 x 538 km, 28.5° (Epoch: 28 January)

Event Time Altitude Azimuth Distance (km) Brightness Sun altitude
Exits shadow 05:04:32 21° 188° (S) 1,227 2.6 -23.6°
Drops below altitude 10° 05:07:20 10° 145° (SE) 1,771 4.0 -23.0°
Sets 05:09:59 0° 129° (SE) 2,660 5.4 -22.5°
